[ hide orbit diagram ]
For accurate long-term ephemerides, please instead use our Horizons system.This orbit viewer was implemented using two-body methods, and hence should not be used for determining accurate long-term trajectories (over several years or decades) or planetary encounter circumstances.
Orbital Elements at Epoch 2459200.5 (2020-Dec-17.0) TDB
Reference: JPL 43 (heliocentric ecliptic J2000)
Element | Value | Uncertainty (1-sigma) | Units |
e | .09690052227355364 | 1.827e-08 | |
a | 3.171071728037348 | 1.214e-08 | au |
q | 2.863793221423629 | 5.9862e-08 | au |
i | 10.05857967114899 | 1.0706e-06 | deg |
node | 193.9261695236921 | 2.1471e-06 | deg |
peri | 195.1953674866194 | 1.0039e-05 | deg |
M | 315.5687111171757 | 7.6456e-06 | deg |
tp | 2459455.062212079600 (2021-Aug-28.56221208) | 4.3804e-05 | TDB |
period | 2062.564437199612 5.65 | 1.1844e-05 3.243e-08 | d yr |
n | .1745400015181003 | 1.0023e-09 | deg/d |
Q | 3.478350234651068 | 1.3316e-08 | au |
|
| | Orbit Determination Parameters
Additional Information
|
[ show covariance matrix ]
Physical Parameter Table
Parameter |
Symbol |
Value |
Units |
Sigma |
Reference |
Notes |
absolute magnitude |
H |
10.03 |
|
n/a |
E2021B10 |
IRAS observations used: 11 |
diameter |
diameter |
58.27 |
km |
1.6 |
IRAS-A-FPA-3-RDR-IMPS-V6.0 |
IRAS observations used: 11 |
rotation period |
rot_per |
17.56 |
h |
n/a |
LCDB (Rev. 2020-October); Warner et al., 2009 |
Published Reference List: [Behrend, R. (2006) Observatoire de Geneve web site, http://obswww.unige.ch/~behrend/page_cou.html] [Behrend, R. (2007) Observatoire de Geneve web site, http://obswww.unige.ch/~behrend/page_cou.html] [Brinsfield, J.W. (2010) Minor Planet Bull. 37, 50-53.] [Hanus, J.; Durech, J.; Oszkiewicz, D.A.; Behrend, R.; et al. (2016) Astron. Astrophys. 586, A108.] [Behrend, R. (2020) Observatoire de Geneve web site, http://obswww.unige.ch/~behrend/page_cou.html] |
geometric albedo |
albedo |
0.0649 |
|
0.004 |
IRAS-A-FPA-3-RDR-IMPS-V6.0 |
IRAS observations used: 11 |
B-V |
BV |
0.764 |
|
0.042 |
EAR-A-5-DDR-UBV-MEAN-VALUES-V1.2 |
#obs=2; phase (min.=7.21, mean=7.39, max.=7.57) deg. |
U-B |
UB |
0.493 |
|
0.062 |
EAR-A-5-DDR-UBV-MEAN-VALUES-V1.2 |
#obs=2; phase (min.=7.21, mean=7.39, max.=7.57) deg. |
Tholen spectral type |
spec_T |
G |
|
n/a |
EAR-A-5-DDR-TAXONOMY-V4.0 |
used 2 color indices; used ground-based radiometric albedo |
|
1023 Thomana (A924 MC) Discovered 1924-Jun-25 by Reinmuth, K. at Heidelberg |
Reference: DISCOVERY.DB | Last Updated: 2003-08-29 |
|
[ show close-approach data ]
|